Location: San Gennaro Vesuviano
(40.8833°N, 14.5333°E)
Time: 22:30:49
(UTC+00:00)

SPOT 3 Rocket - Pass Details

Date: 22 April 2021
Orbit: 778 x 795 km, 98.7° (Epoch: 10 May)

Event Time Altitude Azimuth Distance (km) Brightness Sun altitude
Exits shadow 19:40:39 33° 159° (SSE) 1,309 4.2 -19.5°
Maximum altitude 19:43:04 82° 75° (ENE) 800 3.5 -19.9°
Drops below altitude 10° 19:48:16 10° 348° (NNW) 2,351 6.7 -20.6°
Sets 19:50:35 0° 348° (NNW) 3,281 7.6 -21.0°
